Hourly Data Report for October 03, 2017

All times are specified in Local Standard Time (LST). Add 1 hour to adjust for Daylight Saving Time where and when it is observed.

EAR FALLS (AUT)
ONTARIO

50°37'50.000" N
93°13'17.000" W
362.60 m
6012199
71295
XEA

Download Data

Hourly Data (October 2017)
Hourly Data Report for October 3, 2017
Temp Definition
°C
Dew Point Temp Definition
°C
Rel Hum Definition
%
Wind Dir Definition
10's deg

Wind Spd Definition
km/h
Visibility Definition
km
Stn Press Definition
kPa
Hmdx Definition


Wind Chill Definition


Weather Definition


TIME
00:00 10.1 9.6 97 29 2   97.09     LegendNANA
01:00 8.9 8.3 96   0   97.01     LegendNANA
02:00 8.6 8.1 97 12 3   97.01     LegendNANA
03:00 8.1 7.6 97 0 1   97.03     LegendNANA
04:00 7.5 7.1 98 13 1   97.10     LegendNANA
05:00 7.7 7.4 98 14 1   97.12     LegendNANA
06:00 7.7 7.4 98   0   97.13     LegendNANA
07:00 7.8 7.5 98 28 3   97.15     LegendNANA
08:00 8.6 8.2 98 24 2   97.23     LegendNANA
09:00 9.8 9.3 97 2 4   97.28     LegendNANA
10:00 9.9 9.4 97 31 5   97.32     LegendNANA
11:00 9.5 8.9 96 29 7   97.42     LegendNANA
12:00 9.3 8.6 95 29 9   97.47     LegendNANA
13:00 9.0 8.1 94 29 5   97.44     LegendNANA
14:00 10.4 8.3 87 29 11   97.44     LegendNANA
15:00 9.8 8.1 90 28 5   97.51     LegendNANA
16:00 9.4 7.8 90 28 6   97.53     LegendNANA
17:00 8.8 7.3 91 27 8   97.65     LegendNANA
18:00 8.1 7.0 93 29 6   97.67     LegendNANA
19:00 8.1 7.2 94 27 6   97.71     LegendNANA
20:00 8.2 7.4 95 34 4   97.71     LegendNANA
21:00 7.7 7.0 95 27 5   97.76     LegendNANA
22:00 7.9 7.3 96 21 2   97.76     LegendNANA
23:00 7.0 6.5 96 17 3   97.67     LegendNANA

Notes on Data Quality.

Legend

  • E = Estimated
  • M = Missing
  • NA = Not Available
  • ‡ = Partner data that is not subject to review by the National Climate Archives
Date modified: